Погода в Балахнинском

Россия / Иркутская область     58°00′37″N   114°16′35″E
темп.,
°C
ветер,
м/с
пор.,
м/с
влажн.,
%
обл.,
%
осадки,
мм/ч
давл.,
гПа
погр.,
м
7 мая, пт
пт723:00−3с229398 0.0 101217
02:00−4с229370 0.0 101231
05:00−2ссв249082 0.0 101396
08:00+2ссв237543 0.0 1013406
11:00+5с236478 0.0 10131185
14:00+6с3459100 0.3 10131329
17:00+6с356190 0.2 1013993
20:00+1с229083 0.6 101513
8 мая, сб
сб823:00−2с229480 0.1 101714
02:00−3с219478 0.1 101720
05:00−2ссв2295100 0.0 101759
08:00+3ссв1273100 0.0 1016450
11:00+4всв2460100 0.1 10141187
14:00+6всв3554100 0.3 10131487
17:00+6св465899 0.1 10121427
20:00+1св2283100 0.1 101327
9 мая, вс
вс923:000ссв2388100 0.0 101342
02:00−1св2291100 0.0 101325
05:00−1всв1190100 0.0 101333
08:00+3всв12696 0.0 1012630
11:00+6вюв225490 0.0 10111464
14:00+8в3349100 0.1 10101624
17:00+8всв344944 0.0 10101604
20:00+4св3373100 0.1 101251
10 мая, пн
пн1023:00+1св338310 0.0 101344
02:000св22845 0.0 101425
05:000св22846 0.0 101535
08:00+5всв226310 0.0 1014580
11:00+8в2350100 0.0 10131220
14:00+9в3348100 0.0 10131582
17:00+9всв3348100 0.0 10131509
20:00+5св2374100 0.0 101445
11 мая, вт
вт1123:00+2св33855 0.0 101544
02:00+1св22886 0.0 101526
05:000св228980 0.0 101533
08:00+5всв126765 0.0 1014541
11:00+9в115685 0.1 10121258
14:00+10св225075 0.8 10111531
17:00+10всв324896 0.1 10111457
20:00+7с116898 0.3 101288